[[{"header":{"parameterUnit":"m.s-1","parameterCategory":1,"la1":30.2991,"la2":30.254,"lo1":-89.0895,"lo2":-89.0444,"dy":0.0017,"dx":0.0017,"nx":28,"ny":28,"refTime":"2023-08-05T03:00:00:Z","depth":0,"parameterNumber":2,"parameterNumberName":"U-component_of_WINDS"},"data":[0,0,0,0,0,0,0,0,0,0,0,0,0,0,0,0,0,0,0,0,0,0,0,0,0,0,0,0,0,0,0,0,0,0,0,0,0,0,0,0,0,0,0,0,0,0,0,0,0,0,0,0,0,0,0,0,0,0,1.6858,1.6859,0,1.6971,1.6972,1.6973,1.6996,1.6995,1.6995,1.6994,1.7111,1.7115,1.7118,0,0,0,0,0,0,0,0,0,0,0,0,0,1.666,1.6664,1.6857,1.6859,1.686,1.6971,1.6972,1.6974,1.6996,1.6995,1.6994,1.6993,1.7109,1.7114,1.7119,0,0,0,0,0,0,0,0,0,0,0,0,0,1.6757,1.6665,1.6857,1.6885,1.6888,1.697,1.6972,1.6974,1.6997,1.6995,1.6994,1.6993,1.7108,1.7114,1.7119,1.7182,0,0,1.7137,1.714,0,0,0,0,0,0,0,0,1.6752,1.6764,1.6879,1.6883,1.6887,1.6968,1.6946,1.7044,1.6997,1.6956,1.6994,1.6992,1.7064,1.7074,1.7098,1.7188,1.7193,1.7138,1.7142,1.7144,1.7146,0,0,0,0,0,0,0,1.6745,1.676,1.6902,1.6881,1.6886,1.6892,1.6904,1.6964,1.7016,1.6959,1.6961,1.6974,1.7066,1.7092,1.7101,1.7194,1.7138,1.7143,1.7147,1.7149,1.7339,1.734,0,0,0,0,0,0,1.6733,1.6754,1.6899,1.6906,1.6815,1.6896,1.691,1.6944,1.7015,1.7025,1.6975,1.6975,1.7083,1.7094,1.7105,1.7182,1.7144,1.715,1.7153,1.7338,1.7339,1.7341,0,0,0,0,0,0,1.6729,1.6746,1.6894,1.683,1.685,1.6901,1.6938,1.6946,1.6972,1.7027,1.7037,1.6992,1.7082,1.7097,1.7162,1.7186,1.7152,1.7158,1.7336,1.7338,1.734,1.7336,0,0,0,0,0,0,1.6723,1.6744,1.6769,1.6831,1.6853,1.6949,1.694,1.695,1.6982,1.6983,1.7046,1.7055,1.7082,1.7153,1.7168,1.7194,1.7162,1.7334,1.7337,1.7339,1.7334,1.7338,1.7341,0,0,0,0,0,1.6716,1.6763,1.677,1.6787,1.6884,1.6951,1.6963,1.6994,1.6984,1.7009,1.7044,1.7053,1.7181,1.716,1.7177,1.7204,1.7332,1.7336,1.7339,1.7333,1.7337,1.7341,0,0,0,0,0,0,1.6703,1.6772,1.678,1.6849,1.6894,1.6954,1.6987,1.6998,1.7046,1.7045,1.7081,1.7095,1.7158,1.7188,1.7163,1.7268,1.7256,1.7263,1.7245,1.725,1.7253,1.7244,1.7167,0,0,0,0,0,1.6708,1.6756,1.6814,1.6869,1.6891,1.6935,1.6965,1.6984,1.7032,1.7052,1.7092,1.7138,1.7189,1.7221,1.7271,1.7339,1.7352,1.7366,1.7369,1.7372,1.7377,1.7414,1.742,1.7352,1.7352,1.7352,0,0,1.672,1.6763,1.6791,1.6868,1.6905,1.6953,1.6951,1.7003,1.7039,1.706,1.7123,1.7154,1.7208,1.7275,1.7306,1.7302,1.7399,1.7376,1.7378,1.7382,1.7418,1.7424,1.743,1.7354,1.7354,1.7354,0,0,1.6765,1.6803,1.6852,1.6889,1.6945,1.6974,1.6985,1.7045,1.7066,1.713,1.7146,1.719,1.7277,1.7314,1.7344,1.7402,1.7412,1.7418,1.7435,1.747,1.7475,1.748,1.7499,1.7506,1.7423,1.7423,1.7423,0,1.6771,1.6845,1.6876,1.6927,1.696,1.698,1.703,1.7064,1.7134,1.7156,1.715,1.7258,1.7296,1.7371,1.7385,1.7409,1.7423,1.741,1.7472,1.7477,1.7482,1.7501,1.7508,1.7423,1.7423,1.7423,1.7423,0,1.685,1.6901,1.6934,1.6999,1.7036,1.7086,1.7124,1.7158,1.7174,1.7203,1.7267,1.7314,1.7372,1.7392,1.7408,1.7468,1.7464,1.7465,1.7454,1.7488,1.7506,1.7514,1.7423,1.7423,1.7423,1.7423,0,0,1.689,1.6971,1.6983,1.7012,1.7075,1.7114,1.7165,1.7222,1.7249,1.7296,1.7339,1.7411,1.7412,1.7446,1.7467,1.7498,1.7539,1.7495,1.7497,1.7501,1.7607,1.7604,1.7612,1.7546,1.7548,1.7549,1.7601,0,1.6941,1.7031,1.706,1.7136,1.7182,1.7202,1.7246,1.7289,1.7317,1.7361,1.7393,1.7443,1.7441,1.7461,1.7493,1.7527,1.7561,1.7524,1.7586,1.7587,1.757,1.7622,1.762,1.7668,1.7609,1.761,1.7611,0,1.7012,1.706,1.7139,1.7195,1.7215,1.7254,1.7308,1.735,1.7399,1.7417,1.7455,1.7473,1.7526,1.7513,1.7586,1.756,1.7587,1.7608,1.7611,1.7617,1.76,1.7628,1.7684,1.769,1.7623,1.7622,1.7621,0,1.7031,1.7115,1.7173,1.7198,1.7264,1.7291,1.732,1.7368,1.74,1.7447,1.7468,1.7521,1.7549,1.759,1.7622,1.7609,1.7691,1.7681,1.7707,1.7707,1.7723,1.7721,1.7782,1.7743,1.7743,1.7742,1.7742,0,1.7084,1.7132,1.7182,1.7218,1.7271,1.7304,1.7356,1.7387,1.7429,1.747,1.7491,1.753,1.757,1.7614,1.7639,1.7695,1.7708,1.7724,1.773,1.7721,1.7719,1.7739,1.7736,1.7744,1.7744,1.7744,1.7743,0,1.7114,1.715,1.7214,1.7271,1.7287,1.7324,1.7373,1.7408,1.7437,1.7489,1.7503,1.7549,1.7602,1.7637,1.7705,1.7722,1.7782,1.7788,1.7765,1.7768,1.7791,1.7788,1.7866,1.7877,1.7831,1.7832,1.7832,0,1.7145,1.7181,1.7243,1.7272,1.7301,1.7347,1.738,1.7414,1.7447,1.7504,1.7532,1.7586,1.7631,1.7713,1.7752,1.7804,1.7811,1.7834,1.7819,1.7808,1.7809,1.7806,1.7809,1.7836,1.7837,1.7837,1.7837,0,1.7195,1.721,1.7256,1.7308,1.7346,1.7388,1.7431,1.7453,1.7495,1.753,1.7584,1.7618,1.7687,1.7739,1.7794,1.7824,1.7837,1.7842,1.7851,1.7841,1.7826,1.7833,1.777,1.784,1.784,1.7839,1.7839,1.7839,1.7225,1.7258,1.7306,1.7356,1.7391,1.743,1.7466,1.7499,1.7544,1.7602,1.7619,1.7674,1.7722,1.7797,1.7827,1.7871,1.7869,1.7882,1.7885,1.7887,1.7886,1.782,1.7881,1.7881,1.7881,1.7881,1.7881,0,1.7275,1.7307,1.7352,1.7411,1.745,1.7459,1.7506,1.7538,1.7586,1.7629,1.7672,1.7733,1.7784,1.7827,1.7879,1.7906,1.7913,1.7918,1.7916,1.7923,1.7886,1.7872,1.7912,1.7912,1.7912,1.7912,1.7911,1.7911,1.7305,1.7361,1.7382,1.7456,1.7488,1.7541,1.7567,1.7603,1.7637,1.7704,1.7746,1.7774,1.7817,1.7872,1.7919,1.7931,1.7948,1.7952,1.7964,1.7929,1.7925,1.7922,1.7909,1.7956,1.7956,1.7998,1.7998,1.7998]},{"header":{"parameterUnit":"m.s-1","parameterCategory":1,"la1":30.2991,"la2":30.254,"lo1":-89.0895,"lo2":-89.0444,"dy":0.0017,"dx":0.0017,"nx":28,"ny":28,"refTime":"2023-08-05T03:00:00:Z","depth":0,"parameterNumber":3,"parameterNumberName":"V-component_of_WINDS"},"data":[0,0,0,0,0,0,0,0,0,0,0,0,0,0,0,0,0,0,0,0,0,0,0,0,0,0,0,0,0,0,0,0,0,0,0,0,0,0,0,0,0,0,0,0,0,0,0,0,0,0,0,0,0,0,0,0,0,0,4.4385,4.4385,0,4.4373,4.4373,4.4373,4.4333,4.4332,4.4331,4.433,4.4318,4.4319,4.4319,0,0,0,0,0,0,0,0,0,0,0,0,0,4.4373,4.4374,4.4385,4.4385,4.4385,4.4373,4.4373,4.4373,4.4333,4.4332,4.4331,4.433,4.4318,4.4319,4.432,0,0,0,0,0,0,0,0,0,0,0,0,0,4.4372,4.4374,4.4385,4.4363,4.4361,4.4374,4.4373,4.4373,4.4333,4.4332,4.4331,4.4329,4.4318,4.4319,4.432,4.4352,0,0,4.4322,4.4322,0,0,0,0,0,0,0,0,4.4372,4.4372,4.4367,4.4365,4.4363,4.4353,4.4365,4.4366,4.4334,4.4344,4.433,4.4329,4.4331,4.4331,4.4332,4.4351,4.4351,4.4322,4.4323,4.4323,4.4323,0,0,0,0,0,0,0,4.4372,4.4372,4.438,4.4367,4.4364,4.4355,4.4353,4.4365,4.4345,4.4343,4.434,4.4339,4.433,4.4331,4.4331,4.435,4.4322,4.4323,4.4323,4.4324,4.4396,4.4397,0,0,0,0,0,0,4.4375,4.4373,4.4381,4.438,4.4364,4.4356,4.4354,4.4358,4.4345,4.4342,4.434,4.4337,4.433,4.433,4.433,4.4366,4.4323,4.4324,4.4324,4.4394,4.4396,4.4398,0,0,0,0,0,0,4.4375,4.4376,4.4381,4.4376,4.4376,4.4358,4.4362,4.4358,4.4359,4.4343,4.434,4.4345,4.4329,4.4329,4.4347,4.4365,4.4324,4.4325,4.4393,4.4395,4.4397,4.4439,0,0,0,0,0,0,4.4375,4.4376,4.4388,4.4376,4.4376,4.4397,4.4363,4.4359,4.4361,4.4357,4.4347,4.4344,4.4328,4.4346,4.4347,4.4366,4.4325,4.4391,4.4394,4.4396,4.4436,4.4443,4.4448,0,0,0,0,0,4.4375,4.44,4.4389,4.439,4.439,4.4399,4.4398,4.438,4.4362,4.4374,4.4364,4.4344,4.4364,4.4348,4.4349,4.4368,4.439,4.4393,4.4396,4.4433,4.4441,4.4448,0,0,0,0,0,0,4.4414,4.4398,4.4385,4.4408,4.4405,4.4392,4.4405,4.4389,4.4391,4.4387,4.4365,4.4363,4.4383,4.4378,4.436,4.4399,4.4373,4.4377,4.4401,4.4409,4.4415,4.4415,4.4326,0,0,0,0,0,4.4426,4.4434,4.442,4.4441,4.444,4.4424,4.4427,4.4413,4.4409,4.4407,4.4398,4.4395,4.4401,4.4405,4.4409,4.4436,4.4433,4.445,4.4456,4.4461,4.4464,4.4478,4.4485,4.4408,4.4408,4.4408,0,0,4.4449,4.4441,4.4448,4.4449,4.4445,4.4454,4.4423,4.4433,4.444,4.4409,4.4424,4.4418,4.4413,4.4436,4.4445,4.4432,4.4485,4.4465,4.447,4.447,4.4482,4.4489,4.4496,4.4411,4.441,4.441,0,0,4.4495,4.4491,4.4508,4.4505,4.45,4.4489,4.4494,4.4484,4.4478,4.4494,4.4471,4.4479,4.4489,4.4486,4.4486,4.4535,4.4516,4.4537,4.4568,4.4582,4.4588,4.4593,4.4609,4.4615,4.4541,4.4541,4.4541,0,4.4525,4.4537,4.4519,4.4531,4.4532,4.4506,4.4524,4.4522,4.4518,4.452,4.4506,4.4518,4.4513,4.4534,4.4546,4.4548,4.4552,4.4537,4.4588,4.4593,4.4598,4.4613,4.4619,4.4543,4.4543,4.4543,4.4542,0,4.4573,4.4583,4.4597,4.4595,4.4598,4.4613,4.4597,4.4603,4.459,4.4581,4.4597,4.4591,4.4593,4.4598,4.4585,4.4618,4.4609,4.4592,4.4566,4.4608,4.4622,4.4628,4.4547,4.4546,4.4545,4.4544,0,0,4.4641,4.4631,4.4636,4.4635,4.4628,4.4635,4.465,4.4653,4.4657,4.4657,4.4668,4.4678,4.4662,4.4663,4.465,4.4662,4.47,4.4643,4.4643,4.4653,4.4735,4.4746,4.4753,4.4689,4.469,4.4691,4.4735,0,4.4684,4.4708,4.4693,4.4718,4.4727,4.4703,4.4716,4.4713,4.4706,4.4712,4.4704,4.4711,4.4691,4.469,4.4702,4.4693,4.4716,4.469,4.4698,4.4699,4.4698,4.4761,4.4773,4.4814,4.474,4.4741,4.4742,0,4.4737,4.4739,4.4766,4.4759,4.4762,4.4773,4.4775,4.4781,4.4779,4.4773,4.4774,4.4758,4.4772,4.4748,4.4767,4.4749,4.4752,4.4749,4.475,4.4748,4.4721,4.4759,4.4827,4.4833,4.475,4.475,4.4749,0,4.4782,4.4792,4.4809,4.4809,4.4802,4.481,4.4808,4.4804,4.4807,4.4809,4.4811,4.4815,4.4816,4.482,4.4806,4.479,4.4826,4.4801,4.4821,4.4821,4.4827,4.4827,4.4895,4.4833,4.4833,4.4832,4.4832,0,4.4831,4.4847,4.483,4.484,4.4858,4.4842,4.4861,4.4856,4.4853,4.4862,4.4843,4.4852,4.4834,4.4841,4.4831,4.4847,4.4849,4.4844,4.484,4.4844,4.4845,4.4844,4.484,4.4834,4.4834,4.4833,4.4833,0,4.4883,4.4872,4.4889,4.4881,4.488,4.4894,4.4887,4.4896,4.4889,4.4901,4.4902,4.489,4.4898,4.4885,4.4891,4.4884,4.4907,4.49,4.4908,4.4905,4.4925,4.4923,4.4994,4.5002,4.4936,4.4937,4.4937,0,4.4913,4.4926,4.492,4.4925,4.4923,4.4932,4.4935,4.4921,4.4925,4.4924,4.4933,4.494,4.4944,4.4957,4.4949,4.4954,4.4946,4.4971,4.4946,4.495,4.4944,4.4943,4.4944,4.4975,4.4975,4.4976,4.4977,0,4.4968,4.4962,4.4968,4.4973,4.4977,4.498,4.4981,4.4986,4.4971,4.4977,4.4985,4.4988,4.4995,4.5002,4.5005,4.5002,4.4987,4.4985,4.4989,4.4992,4.4996,4.4993,4.492,4.4983,4.4982,4.4982,4.4981,4.4981,4.5009,4.5019,4.5017,4.5024,4.5024,4.5026,4.5035,4.5029,4.5036,4.504,4.5032,4.5042,4.504,4.5043,4.5042,4.505,4.5039,4.5046,4.5047,4.5049,4.5051,4.4997,4.5051,4.505,4.505,4.505,4.505,0,4.5061,4.506,4.5067,4.507,4.5076,4.5063,4.5064,4.5069,4.5079,4.5079,4.5084,4.5093,4.51,4.5093,4.5098,4.5106,4.5099,4.5108,4.5106,4.5106,4.5061,4.5056,4.5113,4.5113,4.5113,4.5113,4.5113,4.5113,4.5089,4.5106,4.5101,4.5117,4.5115,4.5125,4.5127,4.5129,4.5129,4.5141,4.5146,4.5142,4.514,4.5145,4.5151,4.5149,4.5151,4.5162,4.5157,4.5115,4.5109,4.5103,4.5098,4.5163,4.5163,4.52,4.5201,4.5201]}]]